RH
7 7 7 7 7 8 8 8 9 9 9 9 9 9 9 10 11 12 14 15 16 16 17 17 17 18 18 19 19 19 19 19 20 20 21 21 21 21 21 21 21 21 21 21 21 21 21 21 21 20 20 19 19 18 18 18 18 17 17 16 16 15 15 14 13 12 12 11 11 11 11 10 10 9 8 8 7 6 6 5 5 5 4 5 6
8 8 9 9 9 9 10 10 11 11 11 11 11 12 12 13 14 16 16 17 18 18 18 18 18 18 18 18 18 19 19 20 20 21 21 22 23 23 24 24 25 26 26 26 26 26 26 26 26 25 25 24 24 23 22 22 23 22 22 22 21 20 20 19 18 16 15 14 14 14 14 14 13 12 12 11 10 9 9 8 7 6 6 5 5
10 10 10 11 11 12 12 12 13 13 13 14 14 14 15 16 17 17 18 18 18 18 18 18 18 19 19 20 21 22 24 25 26 27 29 30 31 33 34 35 35 35 36 35 35 34 34 33 32 32 31 30 29 28 28 27 27 26 26 27 27 26 25 24 23 22 21 19 18 17 17 18 17 17 16 15 14 13 12 11 10 9 8 7 7
12 12 12 13 13 13 14 14 14 15 15 16 16 16 17 17 17 17 17 17 18 19 21 23 25 27 28 29 31 32 34 36 37 40 42 41 40 41 41 41 41 41 41 41 40 40 39 38 37 37 36 35 35 34 33 32 32 31 31 31 31 30 30 29 28 27 26 25 24 23 21 21 21 21 20 20 18 17 16 15 14 13 12 11 10
13 13 13 14 14 15 15 15 15 16 16 16 17 17 17 17 17 17 19 22 26 30 33 35 36 38 39 39 41 42 42 44 45 46 46 43 42 42 42 42 41 41 41 40 40 40 40 39 39 39 38 37 37 36 36 35 35 35 34 34 33 33 33 32 32 31 30 29 28 28 27 26 25 25 25 24 23 22 21 20 19 18 17 16 15
13 13 14 14 14 15 15 15 15 16 16 16 16 17 17 18 20 24 30 36 41 43 43 43 43 43 44 44 45 45 44 45 46 45 42 41 41 41 42 43 41 41 40 40 40 40 40 40 39 39 39 38 38 37 36 36 36 36 35 36 35 34 34 34 34 34 33 32 31 31 31 31 30 29 29 29 28 27 26 24 24 23 22 21 20
14 14 14 14 14 15 15 15 16 16 16 17 18 19 22 26 32 38 44 47 49 48 48 47 47 47 46 44 43 43 42 42 44 43 41 41 43 43 44 44 44 44 44 44 44 44 43 43 42 41 41 40 40 39 38 37 37 36 36 35 35 35 35 35 35 36 36 36 35 35 35 35 35 35 35 34 34 33 32 31 29 28 27 26 25
14 14 14 14 14 15 15 15 16 18 21 24 27 30 35 40 45 49 51 52 52 51 50 50 49 48 46 44 43 42 41 40 41 42 41 42 44 44 45 45 45 45 45 45 45 46 45 45 45 44 43 42 40 39 38 37 36 35 34 33 33 34 34 34 34 35 36 36 37 37 37 37 37 38 39 39 39 38 38 38 36 33 32 31 30
16 16 16 16 15 15 16 18 22 27 32 36 39 43 47 51 53 54 54 54 55 54 53 52 52 50 48 47 44 43 43 41 41 42 42 43 43 43 44 43 43 43 43 43 43 43 43 43 42 42 41 40 39 37 36 34 34 32 31 30 30 30 30 30 30 31 32 32 33 34 34 35 36 37 38 38 39 39 39 41 41 39 38 37 35
23 23 22 20 18 18 22 28 35 40 43 45 49 53 56 57 56 57 58 58 57 56 56 56 55 53 50 48 46 45 44 42 41 40 41 41 40 40 41 41 41 41 41 41 41 41 41 40 39 38 36 34 32 30 29 27 26 24 23 22 22 21 21 21 21 21 21 22 23 24 25 27 28 30 32 34 35 36 36 37 38 38 38 38 38
31 31 29 26 26 30 37 45 50 50 51 53 56 58 59 58 58 59 60 60 59 58 58 57 55 53 52 50 49 46 44 42 40 40 40 40 40 40 41 41 42 42 42 42 41 39 37 34 32 29 26 24 22 20 19 17 16 15 14 14 13 13 12 12 12 12 12 13 13 14 15 16 17 19 21 23 25 28 30 31 32 33 33 35 36
40 41 41 42 45 51 55 57 56 55 57 59 60 60 60 61 62 63 64 63 63 61 59 58 58 57 56 54 51 47 44 43 42 42 43 44 44 44 45 46 45 44 42 39 35 31 27 24 21 19 17 15 14 13 12 11 10 9 9 8 8 8 8 8 7 8 8 8 8 8 9 9 10 11 12 14 15 17 20 22 24 25 26 28 31
47 50 55 60 64 66 62 58 57 59 62 63 63 64 65 66 66 66 66 66 65 63 62 63 63 62 59 55 51 49 48 48 49 49 50 51 50 50 49 46 42 38 33 28 24 21 18 16 14 12 11 10 9 8 8 7 7 7 7 6 6 6 6 6 6 6 6 7 7 7 7 7 7 8 8 9 10 11 12 14 16 18 20 21 25
46 52 59 65 66 62 58 58 62 65 67 68 69 69 70 69 67 67 67 66 65 65 66 67 66 62 58 54 53 54 54 55 56 56 57 55 52 48 42 37 32 27 23 19 17 14 12 11 9 9 8 7 7 7 7 7 6 6 6 6 6 6 6 6 6 6 6 7 7 7 7 7 7 7 8 8 8 9 9 10 12 13 15 17 21
48 56 60 60 58 57 60 64 68 70 71 72 72 71 70 69 69 69 68 67 67 69 69 67 63 59 57 57 58 58 57 58 58 57 54 49 43 37 31 26 22 19 16 14 12 10 9 8 8 8 7 7 7 7 7 7 7 8 8 8 8 8 8 8 7 8 8 8 9 9 9 9 9 9 9 9 9 9 9 9 10 12 15 17 22
62 66 62 58 60 64 69 71 72 73 73 72 71 70 70 70 71 70 68 69 69 69 66 62 59 58 58 58 57 57 57 56 54 50 44 38 32 27 23 19 16 14 12 10 9 9 8 8 8 7 8 8 8 8 9 9 10 10 10 10 10 10 10 10 10 10 10 10 10 10 10 11 11 11 11 11 11 11 10 10 9 10 12 17 25
73 70 65 66 71 74 76 76 76 75 72 71 70 70 72 72 71 70 70 69 68 65 61 58 57 57 56 56 55 55 54 51 47 41 35 29 25 21 18 15 12 11 9 9 8 8 8 8 8 9 9 10 10 10 11 11 11 11 11 11 11 10 10 10 10 10 10 10 10 10 10 10 11 12 12 12 12 13 13 12 12 11 10 13 23
76 74 74 79 82 81 80 78 76 74 72 72 73 74 76 74 71 70 68 66 63 60 58 57 56 56 56 56 56 54 50 45 39 33 28 24 20 17 14 12 10 9 9 9 8 8 9 9 10 10 11 12 12 12 11 11 11 10 10 9 8 8 8 8 8 8 9 10 10 12 12 12 12 13 13 13 13 14 15 14 14 13 12 11 15
78 79 83 84 83 80 78 77 75 75 74 75 77 78 77 73 69 67 64 62 60 58 56 55 55 56 56 56 54 50 45 39 33 27 23 20 16 13 11 10 9 9 9 9 9 10 10 11 12 12 13 13 12 12 11 10 9 8 6 6 6 6 6 6 7 10 14 18 21 24 27 26 24 20 17 17 16 15 16 16 15 15 14 13 13
80 83 84 81 78 76 76 76 76 76 77 79 81 79 75 70 67 65 64 63 62 60 59 59 59 58 57 54 51 45 39 33 27 23 20 16 14 11 10 9 9 9 9 10 10 12 13 13 14 14 13 13 12 11 9 7 6 5 5 5 5 6 7 7 10 18 29 38 43 49 56 59 57 48 34 27 25 21 20 22 21 21 20 17 18
83 84 82 78 77 76 76 76 77 78 81 82 80 75 70 67 65 64 64 63 62 62 62 62 60 58 56 52 47 40 33 28 24 20 17 14 12 11 10 10 9 10 10 11 12 14 14 15 15 14 14 13 12 10 7 5 5 4 5 6 7 8 9 10 12 20 36 54 66 78 88 90 87 81 65 51 44 38 34 34 34 35 36 31 28
83 81 79 78 77 77 76 76 78 81 83 80 75 71 67 66 64 63 63 63 63 63 63 61 58 56 54 49 42 35 29 25 21 18 15 13 11 10 10 10 10 10 11 12 14 15 16 16 15 15 14 13 11 8 6 5 5 5 7 8 9 10 11 12 13 16 26 43 59 76 91 97 95 93 86 76 70 66 60 54 48 48 52 52 46
79 78 78 77 76 76 76 78 81 81 80 76 71 69 67 66 63 62 63 65 65 64 61 59 57 55 51 44 37 32 27 23 20 16 14 12 11 10 10 10 10 11 13 15 17 17 17 17 16 15 14 13 10 7 5 5 6 7 8 9 10 11 11 11 14 18 25 36 49 65 84 96 97 96 94 93 91 90 85 74 63 60 62 65 63
76 77 78 76 75 77 78 80 79 78 76 73 70 68 67 65 62 62 65 66 64 61 59 57 56 53 47 40 34 29 25 21 18 16 14 12 11 11 10 11 12 14 17 19 20 19 19 18 17 16 14 13 10 6 6 6 7 9 10 11 11 12 13 16 23 33 44 57 70 83 94 99 99 98 100 101 100 98 93 84 76 74 73 73 71
75 78 78 77 77 79 79 78 77 77 76 72 69 68 67 65 63 63 64 63 61 58 56 56 54 50 44 38 32 28 24 21 18 15 13 12 11 11 11 12 15 18 21 22 21 21 20 19 18 17 15 14 10 7 7 7 9 11 12 13 15 17 23 31 42 55 69 81 91 97 100 100 100 101 101 101 101 97 92 87 82 83 82 79 74
75 79 79 78 79 79 78 78 78 79 76 73 70 68 66 66 64 63 62 60 58 56 55 55 52 47 41 35 30 26 23 21 18 15 13 12 12 11 12 14 18 22 23 24 24 23 22 21 19 18 17 15 12 8 8 9 10 13 15 16 19 23 32 41 49 59 72 84 92 97 99 99 99 101 100 100 101 99 96 92 87 84 79 72 65
76 81 81 81 81 79 79 81 81 80 76 72 69 67 67 66 63 62 61 60 57 56 56 54 50 45 39 33 29 25 23 21 18 16 13 12 12 12 13 17 22 25 26 27 27 26 24 23 21 20 19 18 15 11 9 10 12 14 17 19 23 28 39 49 57 63 68 74 83 91 97 100 101 101 102 101 100 96 92 86 79 73 66 61 61
81 85 85 84 82 81 82 83 83 80 75 71 69 68 66 64 62 62 61 59 57 56 56 54 49 43 37 32 29 25 23 22 18 15 13 12 13 13 15 22 26 28 29 30 30 29 27 25 23 22 21 20 18 15 12 13 14 17 20 23 26 31 39 50 60 69 73 75 78 84 89 93 93 92 92 91 89 86 82 79 78 78 78 78 82
86 88 86 84 83 83 85 85 84 80 75 72 70 68 66 64 63 62 60 58 57 56 56 53 47 42 36 32 29 26 24 22 19 15 13 13 14 14 19 27 30 30 31 32 32 32 30 27 26 25 24 23 22 20 16 16 17 20 23 26 29 32 38 48 59 69 78 84 87 88 90 92 94 93 92 92 93 94 94 95 97 98 99 101 101
88 88 85 84 84 85 86 87 85 81 75 71 69 67 67 66 64 62 60 58 57 56 56 52 46 41 36 32 29 27 25 23 19 15 14 14 14 15 22 31 34 34 34 34 34 35 33 30 28 28 27 25 25 24 22 20 20 21 24 27 30 33 36 43 55 68 78 86 93 98 101 103 103 102 101 101 102 104 104 103 103 102 101 102 103
86 87 85 84 85 86 88 88 86 80 73 70 70 69 68 66 64 62 60 58 57 56 55 51 46 41 36 32 29 28 26 23 18 15 15 16 15 16 24 35 37 37 37 36 37 37 36 34 32 31 30 29 28 28 27 26 25 25 26 27 30 33 36 40 51 66 77 83 88 94 101 106 105 102 100 101 101 101 102 100 100 99 99 99 100
85 87 86 85 86 87 89 90 86 78 73 71 71 70 67 65 63 62 59 57 56 56 54 50 45 40 35 32 30 28 27 23 18 15 16 17 17 17 25 37 41 40 40 39 39 40 39 37 35 34 33 32 31 31 31 32 32 30 30 30 31 34 36 38 44 55 69 79 84 87 91 98 102 102 101 101 101 100 100 100 99 99 99 99 99
86 88 87 87 88 90 92 91 84 77 73 72 71 69 67 65 64 62 59 57 56 56 54 50 45 40 36 33 31 30 28 23 17 16 17 19 18 17 24 36 43 44 43 42 41 42 43 41 39 37 36 36 35 34 34 36 36 36 35 35 36 37 38 39 40 43 51 62 74 82 88 93 98 100 100 100 101 101 101 100 100 100 100 100 100
89 90 89 90 92 94 95 92 84 77 75 73 71 70 67 66 65 62 58 57 57 56 53 49 45 40 37 34 32 31 28 22 17 17 19 20 20 18 22 33 44 47 46 46 44 43 45 45 44 41 39 39 39 37 38 39 40 41 41 40 41 43 43 43 43 44 45 48 56 67 78 89 98 103 102 100 100 100 101 102 101 101 101 101 100
95 94 93 94 96 98 97 91 83 78 76 74 72 71 69 67 65 61 58 57 57 55 53 49 45 41 38 35 34 32 27 21 17 18 21 22 22 20 22 31 43 49 50 49 47 46 47 48 48 46 43 43 43 41 41 42 43 44 45 45 46 47 48 48 48 47 47 48 50 53 60 70 83 95 103 105 104 103 103 103 103 103 104 104 103
101 98 96 96 98 100 97 89 81 78 77 75 75 73 70 67 64 60 58 57 56 55 52 48 45 41 38 36 34 32 26 20 18 20 23 25 24 22 23 30 42 51 53 53 51 49 49 50 51 50 48 47 47 46 45 45 46 46 47 49 51 51 52 53 53 52 50 50 51 52 54 58 64 75 88 98 104 106 106 106 105 104 102 100 100
101 98 97 97 99 99 95 86 80 79 78 77 77 75 71 67 63 60 58 56 55 54 51 48 45 41 39 37 35 32 25 20 19 22 25 27 26 24 25 31 42 52 57 57 55 53 52 53 54 54 54 53 53 51 50 49 49 48 48 51 55 57 58 58 58 57 57 56 56 56 56 57 60 65 72 81 88 93 95 99 104 105 102 96 95
99 97 96 98 99 98 92 84 80 80 80 79 78 75 71 66 63 60 57 56 54 53 51 48 45 42 39 38 36 31 25 21 21 24 27 29 28 27 27 31 41 52 60 62 60 58 56 56 56 57 58 58 58 58 56 54 54 52 50 52 56 61 64 64 62 62 63 64 64 63 62 61 61 64 67 71 75 76 76 79 85 91 95 96 98
98 96 97 99 100 97 89 84 82 82 82 81 79 76 71 66 63 59 56 55 54 52 51 48 44 42 40 39 37 30 24 22 23 26 30 31 30 29 28 32 41 53 63 67 65 63 62 61 60 61 62 62 63 65 64 61 60 57 54 53 57 62 66 67 65 65 68 71 72 72 70 67 65 65 66 68 70 70 67 66 67 70 75 84 95
97 97 99 100 100 96 90 85 84 84 83 83 80 76 71 66 62 59 56 55 54 53 51 47 45 43 41 40 37 30 25 24 25 28 32 33 32 31 30 32 42 55 67 73 72 69 68 67 66 65 65 65 66 68 70 68 65 63 60 57 58 62 66 68 68 69 72 75 78 79 78 75 71 69 69 70 71 69 66 66 66 65 67 73 83
96 98 101 102 101 97 91 86 86 86 86 86 82 77 71 66 62 58 56 54 54 53 51 48 45 44 43 42 38 31 26 25 26 30 35 36 35 33 32 33 40 56 72 80 80 78 76 75 74 72 70 69 69 70 72 71 68 66 65 63 61 62 64 66 70 74 76 78 82 84 84 83 80 76 75 75 74 74 73 71 69 69 70 74 76
98 99 102 103 101 97 91 87 89 90 90 89 85 78 72 67 62 58 56 54 54 53 50 48 46 45 45 44 38 32 28 28 29 32 37 40 40 38 35 34 38 53 73 87 90 88 85 84 83 80 77 74 73 72 72 72 71 69 69 69 67 65 64 65 70 76 80 82 85 87 88 88 86 85 84 82 81 82 81 78 76 75 72 69 67
100 100 102 102 100 96 92 90 92 94 93 91 86 79 73 67 62 59 56 54 54 53 51 49 47 46 47 46 40 34 31 30 32 35 39 43 45 44 42 39 40 50 71 90 96 94 92 90 89 89 87 82 79 77 75 74 72 72 72 73 71 70 68 66 68 75 82 86 88 89 91 91 91 90 90 89 87 86 85 83 82 80 72 64 62
100 101 102 101 99 98 96 93 94 96 96 92 86 80 74 68 63 60 57 55 54 54 52 50 49 49 49 48 43 37 34 34 36 39 44 47 50 51 49 47 46 49 65 86 95 94 93 91 89 92 95 92 87 85 82 78 76 75 75 74 74 76 75 70 68 73 80 85 88 91 92 93 94 95 95 94 92 90 89 86 85 82 75 71 72
101 101 101 100 101 101 99 96 96 98 97 92 86 81 75 70 65 61 58 56 56 55 54 52 51 51 52 51 46 41 38 40 42 45 49 52 54 56 56 55 53 53 61 77 90 94 93 90 88 92 97 98 97 94 90 85 81 79 78 76 76 78 79 76 74 75 79 82 85 88 90 92 94 96 96 96 95 94 91 89 88 89 86 84 86
101 101 100 100 102 103 101 97 97 99 98 91 85 81 77 72 68 63 59 58 58 58 56 54 54 54 55 55 51 46 44 46 49 52 55 57 58 61 62 62 60 59 62 71 82 89 90 88 87 91 95 99 102 101 98 94 90 85 83 81 80 80 80 79 79 80 80 81 83 87 90 92 94 95 95 96 98 100 99 97 97 97 95 92 92
100 101 100 100 102 103 101 98 97 99 97 91 85 83 80 76 70 65 61 59 60 60 59 58 57 58 59 59 56 52 51 54 57 60 63 65 65 66 68 69 67 66 67 70 77 85 87 86 88 93 96 99 103 103 101 100 96 92 89 88 86 84 83 83 84 84 82 83 86 90 93 93 93 94 95 95 96 98 101 102 102 100 97 94 92
100 101 100 100 102 102 100 98 99 100 97 90 86 85 83 79 73 67 64 62 62 63 62 61 61 61 62 63 62 59 58 60 64 68 71 73 74 74 75 77 77 75 74 73 75 79 82 81 83 89 94 98 103 106 105 102 98 95 93 94 93 90 86 85 85 83 81 84 90 94 95 95 94 97 99 99 98 98 98 98 99 98 97 96 94
100 101 100 100 101 101 100 100 100 101 97 92 88 87 87 83 76 70 67 65 65 66 66 65 65 64 64 66 66 66 65 66 69 73 77 81 84 85 86 86 86 86 84 82 79 79 80 79 80 86 91 95 100 106 108 107 105 102 99 99 101 100 97 94 91 85 81 85 90 91 92 93 94 95 97 98 100 101 99 97 97 97 97 96 95
100 100 100 100 100 100 100 100 101 101 98 93 91 91 91 87 80 74 71 68 68 69 70 68 68 68 68 69 70 71 72 72 74 76 81 87 95 99 99 97 94 94 94 93 89 86 83 81 81 85 89 90 93 100 106 109 110 108 104 101 102 104 105 105 101 95 91 94 96 95 96 99 98 97 97 97 96 96 94 94 96 97 97 96 96
101 100 100 100 100 100 100 100 101 101 99 95 94 96 95 91 84 78 74 72 71 72 73 72 71 71 72 73 73 75 77 78 80 82 84 89 97 104 105 103 101 101 101 100 98 94 91 86 82 81 82 83 84 90 97 102 105 105 101 98 98 101 103 105 103 99 96 97 97 96 100 105 105 103 102 101 99 97 95 95 96 96 96 96 95
Wind_Speed
34 35 35 36 37 37 38 39 39 40 40 40 40 41 41 41 42 43 44 46 47 48 48 49 50 50 51 52 53 54 55 56 57 58 59 60 61 62 63 64 64 65 66 66 67 68 68 69 69 70 70 71 71 71 71 71 72 72 72 73 73 73 73 74 73 73 72 71 71 71 71 72 71 71 72 72 73 74 75 77 79 81 84 86 89
35 36 37 37 38 39 39 40 40 41 41 41 41 42 42 43 44 45 47 48 50 51 51 52 53 54 54 55 56 57 58 59 60 61 62 63 64 64 65 66 66 67 68 69 69 70 70 71 72 72 73 73 74 74 74 74 74 75 75 75 76 76 76 77 77 77 76 76 75 74 74 75 75 75 74 74 74 74 74 75 76 77 78 80 82
36 37 37 38 39 40 40 41 41 42 42 42 43 43 44 45 46 48 50 51 53 53 54 55 56 57 57 58 58 59 60 61 61 62 63 64 64 65 66 67 67 68 68 69 70 71 71 72 73 73 74 74 75 75 76 76 76 77 77 77 78 78 79 79 79 80 80 80 80 79 78 79 78 78 78 78 77 77 76 76 76 76 77 77 79
37 38 39 39 40 41 42 42 43 43 43 44 44 45 45 47 49 51 53 54 55 56 57 57 57 58 59 59 60 60 61 61 62 63 64 65 65 66 67 67 67 68 69 69 70 71 71 72 73 74 75 75 76 76 77 77 77 78 78 79 80 80 81 81 81 82 82 82 83 83 82 82 82 81 81 81 81 81 80 79 79 78 78 78 78
38 39 40 40 42 43 43 44 44 44 45 45 46 47 48 51 53 55 56 57 58 58 59 59 59 59 60 60 60 61 61 62 63 64 65 66 66 67 68 68 69 69 70 71 71 72 73 74 75 75 76 76 77 78 78 78 78 79 80 80 81 81 82 82 83 83 84 84 85 85 85 85 85 84 84 85 84 84 83 83 82 81 81 80 80
39 40 41 42 43 44 45 45 45 45 46 47 48 50 52 55 56 57 58 58 59 59 60 60 60 61 61 61 61 62 62 62 64 65 66 67 68 68 69 70 71 71 72 73 74 75 75 76 77 77 78 78 79 79 79 80 80 80 81 81 82 82 82 83 83 84 85 85 85 86 87 87 87 87 87 87 87 86 86 86 85 85 84 84 83
40 41 42 44 44 45 46 46 46 46 48 49 51 53 55 57 58 58 59 59 60 60 60 61 61 62 62 62 63 63 63 64 65 67 67 67 68 69 70 71 72 73 73 74 75 75 76 77 78 79 79 80 80 80 81 81 82 82 82 82 83 83 83 83 84 84 85 85 86 87 87 88 88 88 89 90 89 88 88 88 88 88 87 87 86
41 42 43 44 45 45 46 46 47 48 51 52 54 55 56 57 58 59 59 60 60 61 61 62 62 63 63 63 63 64 65 65 66 68 68 69 69 70 71 71 72 73 73 74 74 75 75 76 77 78 79 80 81 82 83 84 84 85 85 86 86 86 86 86 86 87 87 88 88 88 89 89 90 90 90 91 91 90 90 90 90 90 90 89 89
41 42 44 45 45 45 45 47 49 51 53 55 56 57 57 58 58 59 60 60 61 62 62 62 63 63 63 64 64 65 66 66 67 68 69 70 71 71 71 72 72 73 73 73 74 75 76 77 78 79 81 82 84 85 86 87 88 89 90 90 90 91 91 91 91 91 92 92 92 93 93 93 93 93 94 94 94 93 92 92 92 92 92 92 91
41 42 44 45 44 44 46 49 52 54 56 57 57 58 58 59 59 60 60 61 61 62 62 63 63 63 64 65 65 66 67 68 68 69 71 72 72 72 72 72 73 73 74 75 76 77 79 80 82 83 85 86 87 88 89 90 91 92 93 94 94 95 95 95 96 96 97 97 97 98 98 98 98 98 98 98 98 98 96 95 95 95 95 94 94
40 41 43 43 43 45 48 50 54 56 57 58 58 58 59 59 60 60 61 62 62 62 62 63 64 64 65 66 66 67 68 69 70 70 71 72 72 72 72 72 73 74 76 78 79 81 83 85 86 87 88 89 90 91 92 93 94 95 96 97 98 98 99 99 100 100 101 101 102 102 103 103 103 102 103 103 103 102 101 100 99 99 98 97 96
39 40 41 42 44 46 49 53 55 57 57 57 58 58 59 60 60 61 61 62 62 62 63 64 64 65 66 67 68 69 70 71 71 71 71 72 72 72 73 74 75 76 78 80 82 84 86 88 89 90 91 92 93 94 95 96 97 98 99 100 100 101 101 102 102 103 103 103 104 105 105 105 105 105 105 105 105 105 105 104 103 102 101 99 98
41 41 41 42 45 48 51 54 55 55 56 57 58 59 59 60 60 61 61 62 62 63 64 64 65 66 67 68 69 70 70 70 70 70 70 71 72 73 74 75 77 78 80 82 84 86 88 90 91 93 94 95 95 96 97 98 98 99 99 100 100 101 101 101 101 101 101 101 101 102 103 104 104 105 105 105 105 106 106 105 105 104 103 101 99
44 43 44 45 48 51 53 54 55 56 57 58 59 59 59 60 60 60 61 62 62 63 64 64 65 66 67 67 68 68 68 68 68 69 69 70 72 73 75 77 78 80 82 84 86 88 89 91 93 94 94 95 95 96 96 96 96 96 96 96 96 97 96 96 96 96 95 95 96 97 98 99 99 100 100 101 102 103 103 104 104 104 103 102 100
47 47 48 50 52 54 55 55 56 57 58 58 59 59 59 59 60 60 61 62 62 63 63 64 65 66 66 66 66 67 67 67 67 68 69 71 73 74 76 78 80 81 83 85 87 89 90 92 93 93 93 92 91 91 90 89 89 89 89 90 91 92 92 92 92 92 91 92 93 93 94 94 95 95 95 95 95 97 98 99 100 101 101 100 99
49 49 51 52 53 54 55 56 57 57 58 58 59 59 59 60 60 61 62 62 63 63 64 64 65 65 65 66 66 66 66 66 67 68 70 72 74 75 77 79 81 83 84 86 88 89 90 90 90 89 88 86 85 84 84 84 85 85 86 87 88 90 91 92 93 92 92 93 94 94 94 94 94 94 93 91 91 91 92 93 95 96 97 98 97
49 51 52 53 53 55 55 56 57 57 57 58 58 59 59 60 61 61 62 62 63 64 64 65 65 65 66 66 66 66 66 67 68 69 71 73 75 77 78 80 82 84 86 87 88 87 86 85 84 82 82 81 81 81 82 83 84 85 86 88 89 91 92 93 94 94 94 95 95 95 96 95 94 94 94 92 90 89 89 89 90 91 93 94 95
50 52 53 53 54 55 56 56 56 57 57 58 58 59 59 60 61 62 62 63 63 64 65 65 65 66 66 66 66 66 66 67 69 70 72 74 76 78 80 82 84 85 86 86 85 83 81 80 79 78 78 79 79 80 82 83 85 86 88 89 90 91 92 93 93 93 93 94 94 94 94 94 93 92 92 91 90 88 87 87 88 88 89 90 91
52 52 53 55 55 56 56 57 57 57 58 58 58 59 60 61 61 62 63 64 65 65 66 66 66 66 66 66 66 66 67 68 70 71 73 75 77 79 81 83 84 84 83 81 79 77 76 76 75 75 76 76 78 79 81 83 84 86 87 88 88 89 90 90 90 90 90 90 90 90 90 91 91 90 88 88 87 86 84 85 86 86 86 86 87
53 53 54 56 56 57 57 57 58 58 58 58 58 59 60 61 62 62 63 65 66 66 67 67 67 66 66 66 66 67 68 69 71 72 74 75 77 79 81 82 82 80 78 76 74 73 73 73 73 73 73 74 76 78 79 80 81 82 83 84 84 85 85 86 86 86 87 87 87 87 87 87 88 88 86 85 84 83 81 80 82 82 83 83 84
53 54 56 57 57 58 58 58 58 58 58 58 58 60 61 61 62 63 64 65 66 67 67 67 66 66 65 65 66 67 68 70 72 73 75 76 78 80 81 81 79 77 75 73 71 71 71 70 70 70 71 72 74 75 76 76 77 77 77 78 78 79 80 82 83 84 85 86 87 87 87 87 88 88 87 85 83 80 78 76 77 77 78 79 81
55 56 57 58 58 58 58 58 59 58 58 58 59 60 61 62 62 63 65 66 66 67 67 66 66 65 65 65 66 67 69 70 72 73 75 77 79 80 80 79 77 75 72 70 70 69 69 68 68 68 69 70 71 72 72 72 71 71 71 71 72 73 75 77 80 82 83 85 86 86 87 87 87 87 85 83 80 78 76 74 73 73 73 75 77
56 57 57 58 58 59 59 59 59 58 58 58 59 60 61 62 63 64 65 66 66 66 66 65 65 64 64 65 66 67 69 70 72 73 75 77 79 79 79 77 75 72 70 68 68 67 67 66 66 67 67 68 68 68 68 67 66 66 65 65 66 67 68 71 74 76 77 78 78 78 78 79 80 80 79 78 77 76 75 73 72 71 71 71 73
56 57 57 58 58 59 59 58 59 58 58 58 59 60 61 62 63 64 65 66 66 66 65 65 64 64 64 65 66 67 68 70 71 73 75 77 77 77 76 73 70 67 66 66 66 65 65 64 64 64 65 65 65 64 64 63 62 61 61 60 60 60 61 63 66 68 69 69 69 69 69 71 73 74 74 75 76 75 74 74 73 72 70 70 71
56 57 58 58 58 59 59 59 58 58 57 58 60 61 61 62 64 65 66 66 66 66 65 64 63 63 64 65 66 67 68 69 71 72 74 76 76 75 72 68 65 64 64 63 63 63 62 62 62 62 62 62 62 61 60 59 58 57 57 56 56 55 55 56 58 60 62 63 64 65 66 69 71 72 73 74 75 75 75 74 73 73 72 71 70
57 57 58 58 59 59 59 59 58 57 57 59 60 61 62 63 64 65 66 66 66 65 64 63 62 63 64 65 66 67 68 69 71 72 74 75 75 73 69 64 62 62 62 61 61 60 60 60 60 60 60 60 59 58 57 55 54 54 53 53 52 51 51 51 53 56 59 61 63 65 66 67 68 69 70 72 73 74 74 74 74 73 72 71 69
57 58 58 59 59 59 59 59 57 57 58 59 61 61 62 63 64 65 66 66 65 64 63 62 62 63 63 64 66 67 68 69 70 72 74 75 74 70 65 62 60 60 60 59 59 58 58 58 58 58 58 58 57 56 55 54 52 51 51 50 49 48 47 47 47 50 53 57 60 64 66 68 69 69 70 72 73 74 74 74 73 72 70 68 66
57 58 59 59 59 59 59 58 57 57 58 60 61 61 62 64 65 65 66 65 64 63 62 62 62 63 63 64 65 67 68 69 70 72 73 74 72 67 62 59 59 59 58 58 57 57 57 57 57 56 56 56 55 54 53 52 51 49 49 48 47 46 45 44 44 44 46 48 50 54 58 61 63 65 67 68 69 69 69 68 66 65 63 62 62
58 58 59 59 60 60 59 58 56 57 59 60 61 62 63 64 65 65 65 64 63 62 62 62 62 63 63 64 65 67 68 69 70 72 73 73 70 65 60 57 57 58 57 56 56 55 55 55 55 55 55 54 53 53 52 50 49 48 46 45 45 45 44 43 43 43 43 43 43 44 46 48 50 52 53 54 55 56 56 56 56 56 56 57 58
58 59 59 59 60 60 59 57 56 57 59 61 61 62 63 64 64 65 64 63 62 62 61 61 62 62 63 64 65 66 67 68 69 71 72 71 67 62 58 56 56 57 57 56 55 55 54 55 55 54 54 53 52 52 50 49 48 46 45 43 42 42 42 42 42 41 41 41 41 42 42 43 43 44 45 46 47 48 49 50 51 51 52 53 55
59 59 59 60 60 60 58 57 56 58 60 61 61 62 63 63 64 64 63 62 62 61 61 61 62 62 63 64 65 66 67 67 69 70 71 69 65 60 57 55 56 56 56 55 54 54 54 54 54 53 53 52 52 51 50 49 47 46 45 43 41 40 40 39 40 40 41 41 41 41 41 41 41 42 43 44 44 46 46 47 48 49 50 51 53
59 59 59 60 60 59 58 56 56 58 60 60 61 61 62 63 63 63 62 62 61 61 61 61 61 62 63 64 65 65 66 67 68 70 69 67 63 58 56 55 55 56 55 55 54 53 53 53 53 52 51 51 51 51 49 48 47 46 46 44 42 40 39 38 37 38 39 41 41 41 40 40 41 41 42 42 43 44 45 46 47 48 49 51 52
59 59 60 60 60 59 57 56 57 58 60 60 60 61 62 62 63 62 61 61 61 60 61 61 61 61 62 63 64 64 65 66 67 69 68 65 62 58 55 54 54 55 55 54 53 53 52 52 52 51 50 50 50 50 49 48 47 47 46 45 43 40 39 38 37 37 37 39 40 41 41 41 41 42 42 42 43 43 44 45 46 47 48 50 51
59 59 60 60 59 58 56 55 57 58 59 60 60 61 62 62 61 61 61 61 60 60 60 60 60 61 62 62 63 63 64 65 66 67 67 64 61 58 55 54 54 54 54 54 53 52 52 51 51 50 49 48 49 49 49 48 47 47 46 45 43 41 39 38 37 37 37 37 37 39 40 41 42 42 43 43 43 44 44 45 46 47 48 49 50
59 59 59 59 58 56 55 55 57 58 59 60 60 61 61 61 61 60 60 60 60 60 60 60 60 60 61 62 62 62 63 64 65 66 65 63 60 57 55 54 54 54 54 53 52 51 51 51 50 49 48 47 48 48 48 48 47 47 46 45 43 42 39 38 37 37 37 36 36 37 38 39 41 42 43 44 44 44 45 45 46 47 48 50 50
59 59 59 59 58 55 54 55 57 58 59 59 60 60 60 60 60 60 60 60 60 59 59 59 59 60 60 61 61 61 62 62 64 64 63 62 59 57 55 54 53 53 53 52 52 51 50 50 50 49 48 47 47 47 47 47 47 47 46 45 43 42 40 39 37 37 37 36 36 36 36 37 38 40 42 44 45 45 45 46 47 48 49 50 50
60 60 59 58 57 55 54 55 57 58 59 59 59 60 60 59 59 59 59 59 59 59 58 58 59 59 59 59 60 60 60 61 62 62 61 60 59 57 55 54 53 53 52 52 51 50 49 49 49 48 47 46 46 47 46 46 46 47 46 45 43 42 41 40 39 38 37 36 36 36 36 36 36 37 39 42 44 46 47 47 48 49 50 50 50
60 59 59 58 55 54 54 55 57 58 58 59 59 59 59 59 58 58 58 59 58 58 58 58 58 58 58 58 58 58 58 60 60 60 60 59 58 57 55 54 52 52 51 51 50 49 48 48 48 47 47 46 46 46 46 46 46 46 46 45 44 42 41 40 39 38 37 36 36 36 36 36 36 37 38 40 42 45 46 47 48 49 50 50 50
59 59 58 56 54 53 53 55 56 57 57 58 58 58 58 58 57 58 58 58 58 57 57 57 57 57 57 57 57 57 57 58 59 59 58 57 57 56 55 53 52 51 50 50 49 48 47 47 47 46 46 45 45 45 46 46 45 45 45 44 43 42 41 40 39 38 37 36 36 36 37 37 37 38 39 40 42 44 44 45 46 47 48 49 50
59 58 57 55 53 52 53 55 56 56 57 57 57 57 57 56 57 57 57 57 57 56 56 57 56 56 56 56 56 56 56 57 57 57 57 56 56 55 55 53 52 50 49 49 48 47 46 46 46 45 45 45 44 44 45 46 45 45 45 44 43 43 42 40 38 37 36 36 36 37 38 39 39 39 39 40 42 44 44 43 43 44 44 45 48
58 58 56 53 52 52 53 55 55 56 56 56 56 56 56 56 56 56 57 56 56 56 56 56 56 56 55 55 55 55 55 56 56 56 56 56 55 55 54 54 52 50 49 48 48 47 45 45 45 45 44 44 44 43 44 45 45 44 44 44 43 43 42 40 38 36 36 35 36 37 38 39 40 40 40 40 42 43 44 44 43 42 42 43 46
57 57 54 52 51 52 53 54 55 55 55 55 55 55 55 55 55 55 56 56 55 55 55 55 55 55 54 54 54 54 54 55 55 55 55 55 55 54 54 54 53 51 49 48 48 47 45 45 45 45 44 44 44 43 43 44 45 44 43 43 43 42 42 41 38 36 35 35 35 36 38 39 41 41 41 41 41 42 44 45 44 44 44 44 45
56 55 53 51 51 52 53 54 54 55 54 54 54 54 54 54 55 55 55 55 55 55 55 55 54 54 54 54 54 54 54 54 55 55 54 54 54 54 54 54 53 52 49 48 48 47 45 44 44 44 44 44 44 43 43 44 44 44 43 43 43 42 42 41 39 37 36 35 35 36 38 39 41 42 42 42 42 43 44 45 45 47 48 46 45
55 54 51 50 50 52 53 54 54 54 54 53 53 54 54 54 54 55 55 55 55 54 54 54 54 54 53 54 54 54 54 54 54 54 54 55 55 54 54 54 54 52 50 48 48 47 46 44 43 43 43 43 43 43 44 44 44 44 43 43 43 42 42 41 40 38 37 36 36 36 38 39 40 41 42 43 44 45 46 46 47 48 49 47 45
54 52 50 50 50 52 53 53 53 53 53 53 53 53 53 54 54 54 55 55 54 54 54 54 54 54 54 53 54 54 54 54 54 54 54 55 55 55 54 54 54 53 51 49 47 46 46 44 43 42 42 42 43 43 43 44 44 44 44 43 43 42 41 41 40 39 39 39 38 37 38 38 39 40 42 43 44 46 47 47 47 48 48 46 45
53 51 49 49 50 52 53 53 53 52 52 52 52 52 53 53 53 54 54 54 54 54 54 54 54 54 54 53 54 54 54 54 55 55 55 56 56 56 55 55 54 53 51 49 47 46 45 44 42 41 40 40 41 42 43 43 44 44 44 44 43 42 41 40 40 39 40 40 40 40 39 39 40 41 42 43 43 44 46 46 47 47 47 46 45
52 50 49 49 51 52 53 53 53 52 52 52 52 52 52 53 53 54 54 54 54 54 54 54 54 54 54 54 54 54 54 55 56 56 56 57 58 58 57 56 56 54 52 50 48 46 45 44 42 41 40 39 40 41 42 43 43 43 43 43 43 42 41 40 39 39 40 40 40 41 41 42 42 42 42 42 43 43 44 45 46 47 47 47 47
50 49 49 49 51 52 52 53 52 51 51 51 51 51 52 52 53 53 53 54 54 54 54 54 54 54 55 55 55 55 55 55 56 57 57 58 58 59 59 58 58 56 54 52 50 48 46 44 43 42 41 39 39 40 42 43 43 43 44 44 44 43 42 41 40 40 40 40 40 41 42 43 43 43 43 44 44 44 44 45 45 46 47 47 47
49 48 49 49 51 52 52 52 51 51 51 51 51 51 51 52 52 53 53 54 54 54 54 54 55 55 55 56 56 56 56 56 56 57 58 59 59 60 59 59 59 59 57 55 52 50 48 46 44 43 42 41 39 39 41 43 43 43 43 43 44 44 44 43 43 43 42 41 41 41 42 43 43 44 44 44 44 45 45 45 45 46 46 46 46
48 48 48 49 50 51 52 51 51 51 51 51 51 51 51 51 52 52 53 53 54 54 55 55 55 56 56 56 57 57 57 57 57 57 58 58 60 61 61 60 59 59 58 57 56 53 51 48 46 44 43 42 40 39 39 41 42 43 42 42 42 43 43 43 43 43 43 42 42 43 43 43 44 45 45 45 45 45 46 45 45 46 46 46 46
47 47 48 49 50 51 51 51 50 50 50 51 51 51 51 51 52 52 53 53 54 54 55 55 56 56 57 57 58 58 58 58 58 58 59 58 59 60 61 62 61 60 59 59 58 57 55 52 49 47 45 43 41 39 39 40 41 42 42 42 42 42 43 43 43 43 43 42 42 43 42 43 44 45 46 47 47 47 47 47 47 47 46 46 45
Wind_Direction
296 297 297 297 296 296 295 295 295 295 295 294 294 293 293 293 294 295 296 297 297 297 296 295 295 295 294 294 294 294 293 292 292 291 290 290 289 289 288 288 288 287 287 286 285 285 284 284 283 282 282 281 280 280 279 279 278 278 277 277 276 276 275 275 274 273 272 272 271 271 271 270 270 269 269 268 267 267 266 265 265 264 263 262 262
298 298 298 298 297 297 297 297 297 296 296 295 295 294 294 294 295 296 297 297 296 296 296 295 295 295 294 294 293 293 292 292 291 290 290 289 289 288 288 288 287 287 286 286 285 285 284 283 283 282 282 281 280 280 279 278 278 277 277 276 276 275 275 275 274 274 273 272 272 271 271 271 271 270 270 269 268 268 267 266 266 265 264 264 263
299 299 298 298 298 298 298 297 297 296 295 295 294 293 293 294 294 295 295 295 295 294 294 294 294 294 293 293 293 292 292 291 291 290 290 289 289 289 288 288 287 287 286 286 285 284 284 283 282 282 281 280 280 279 278 277 277 276 276 275 275 274 274 274 273 273 273 272 272 271 271 271 270 270 270 270 269 269 268 268 267 266 266 265 264
299 298 298 298 298 298 297 297 296 295 294 293 293 292 292 293 293 294 294 294 294 294 294 294 294 294 293 293 292 292 292 292 292 291 290 290 290 289 289 288 288 287 287 286 285 285 284 283 282 281 281 280 279 278 277 276 276 275 274 274 273 273 273 272 272 272 272 272 271 271 270 270 270 270 270 270 269 269 269 268 268 267 267 266 266
297 297 297 297 297 297 296 296 295 294 293 293 293 292 292 293 294 295 296 296 295 295 295 295 294 294 293 293 293 293 293 293 292 291 291 291 291 291 290 290 289 288 288 287 286 286 285 284 283 282 282 281 280 279 278 277 276 275 274 273 273 272 272 272 271 271 271 270 270 270 270 269 269 269 269 268 268 268 268 268 268 268 267 267 266
296 296 297 297 297 296 295 294 294 294 294 294 293 293 293 294 296 297 297 296 296 295 295 295 295 295 294 294 294 294 294 293 293 292 292 293 293 292 292 291 291 290 289 289 288 287 287 286 285 284 283 282 282 281 280 279 278 277 276 275 274 273 273 272 272 271 270 270 269 269 269 269 268 268 268 267 267 267 267 267 267 267 267 267 267
296 297 297 297 296 295 294 294 294 295 294 294 293 294 294 296 297 297 296 296 295 296 296 296 296 296 295 295 295 295 294 294 294 294 294 294 293 293 292 292 291 291 290 289 289 288 287 287 286 285 285 284 283 282 282 281 280 279 278 277 276 275 274 273 273 272 272 271 270 269 269 268 268 267 267 267 266 266 266 266 266 266 266 266 266
296 296 296 296 295 294 294 295 295 295 295 294 294 294 295 296 296 296 296 296 296 297 297 297 297 296 296 296 296 295 295 295 295 295 295 294 293 293 292 291 291 290 289 289 288 288 287 286 286 286 285 285 284 283 282 282 281 280 279 278 277 276 276 275 274 273 273 272 271 270 269 269 268 267 266 266 265 265 265 265 265 265 265 265 265
296 297 297 296 296 296 296 297 297 296 294 294 294 295 296 297 297 297 297 297 297 298 298 298 298 298 297 297 297 297 296 296 296 296 295 294 294 293 292 291 291 290 289 289 288 287 287 286 286 286 285 285 284 284 283 282 282 281 280 279 278 277 277 276 275 274 273 273 272 271 270 269 268 267 267 266 265 265 264 264 265 265 264 264 264
298 298 297 298 298 299 298 297 295 294 293 294 296 298 298 298 297 297 298 298 299 299 299 299 299 298 298 298 298 298 298 298 297 297 296 295 294 293 293 292 292 291 291 291 290 290 289 288 287 287 286 285 284 284 283 283 282 281 281 280 279 278 277 277 276 275 274 273 272 271 270 270 269 268 267 266 265 265 264 263 263 264 264 264 264
300 299 299 299 299 297 296 294 292 292 294 297 298 298 298 298 298 299 299 300 300 300 300 300 300 300 300 300 300 300 299 298 298 297 296 295 295 294 294 294 294 294 293 293 292 291 290 289 288 287 287 286 285 284 284 283 282 282 281 280 279 278 278 277 276 275 274 273 272 271 270 269 269 268 267 266 265 265 264 263 263 263 263 263 263
303 301 300 299 297 294 292 291 292 295 297 298 299 299 299 300 300 301 301 301 301 301 301 301 302 302 302 302 301 301 300 299 299 298 298 297 297 297 296 296 296 295 294 293 292 291 291 290 289 289 288 287 286 286 285 284 283 282 281 280 279 278 277 276 275 274 273 272 271 270 269 269 268 267 266 265 265 264 263 263 262 261 261 261 261
306 304 301 298 295 292 291 293 296 299 300 300 301 301 301 302 302 302 302 302 302 302 302 303 303 302 302 302 301 301 300 300 300 299 299 299 298 298 297 296 295 294 293 293 292 292 291 291 291 290 289 289 288 287 286 285 284 283 282 281 280 278 277 276 275 274 273 272 271 270 269 268 267 266 265 264 264 263 262 262 261 260 259 259 258
309 306 303 299 297 296 298 301 302 303 302 302 302 302 302 302 302 302 302 302 302 303 303 302 302 302 301 301 300 300 300 300 300 299 299 298 297 296 295 295 294 294 294 293 293 293 293 292 292 292 291 290 290 289 288 286 285 284 283 281 280 279 278 276 275 274 273 272 271 270 269 268 267 266 265 264 263 262 261 260 260 259 258 257 256
310 307 304 302 302 304 305 305 304 304 304 303 303 303 303 302 302 303 303 303 303 303 302 302 301 301 301 300 300 300 300 300 299 298 297 297 296 296 296 296 296 295 295 295 295 295 294 294 294 293 292 291 290 289 288 286 285 284 283 282 281 280 278 277 276 275 273 272 271 270 269 269 268 267 266 265 264 263 262 261 259 258 257 256 255
309 306 304 305 306 306 305 305 305 304 304 304 303 303 303 303 304 304 304 303 303 302 302 301 301 301 301 301 301 301 300 300 299 298 298 297 298 298 298 298 297 297 297 297 297 297 296 296 295 294 292 291 290 289 287 286 285 283 282 281 280 279 278 277 276 275 274 272 271 270 269 268 268 267 266 265 264 264 263 262 260 258 257 255 254
307 306 306 307 307 305 305 304 305 304 304 304 304 304 305 305 305 304 304 304 303 303 303 303 303 303 303 303 302 302 301 300 299 299 300 300 300 300 300 300 300 301 301 300 300 299 298 297 295 294 293 292 290 289 288 286 285 284 282 281 279 278 277 276 275 274 273 272 271 270 269 268 267 267 266 265 264 263 263 262 261 260 258 256 254
307 307 308 308 306 305 305 305 305 305 305 306 306 306 306 305 305 305 304 304 304 304 304 304 305 305 304 304 303 302 301 301 301 302 302 302 303 303 303 303 304 303 303 302 301 300 299 297 296 295 294 292 292 290 289 288 286 285 283 281 279 277 276 274 273 273 272 271 271 270 269 269 267 266 266 265 264 263 262 261 261 260 259 257 255
309 309 309 307 307 307 307 307 307 307 307 307 307 306 306 306 306 305 305 305 306 306 306 307 307 306 305 304 303 303 303 303 304 304 304 305 305 305 306 306 306 305 305 303 302 300 299 298 296 295 294 294 293 292 291 290 288 286 284 281 279 277 275 274 272 271 271 271 271 270 270 270 270 268 267 265 264 263 262 261 260 259 259 258 256
310 310 308 308 308 308 308 308 308 308 308 308 307 306 306 306 306 307 307 308 308 308 308 308 307 306 305 305 304 305 305 306 306 306 307 307 307 308 308 308 308 307 305 304 302 300 299 298 297 297 296 296 296 295 293 291 289 287 284 282 279 277 275 273 272 271 270 270 271 271 271 271 271 271 269 268 266 264 262 261 260 259 258 257 256
310 310 309 309 309 309 309 309 309 309 308 307 306 306 307 307 308 309 309 309 309 309 309 308 307 306 306 306 306 306 307 307 308 309 309 309 310 310 310 310 309 307 305 303 302 301 300 300 299 298 298 299 299 298 296 294 291 288 285 282 280 277 275 273 270 269 268 269 269 270 270 270 270 271 271 270 269 267 264 262 260 259 258 257 256
311 310 310 310 310 309 309 309 309 308 307 306 307 307 308 309 309 310 310 310 310 309 308 307 307 306 306 306 307 308 308 309 310 311 311 311 312 312 312 311 309 307 305 304 303 303 302 302 301 301 301 302 302 301 299 296 293 290 287 284 281 278 275 273 270 268 267 266 267 267 268 268 269 269 270 270 270 268 266 264 261 260 259 258 256
311 311 310 310 309 309 309 309 308 308 307 307 308 309 309 310 310 311 311 310 309 308 308 307 307 307 307 307 308 309 310 311 312 312 313 313 313 313 312 310 308 307 306 305 305 305 305 305 304 305 305 306 306 304 302 300 297 293 290 287 283 279 276 274 271 268 266 266 265 266 266 267 267 268 268 268 268 267 267 266 264 262 260 259 257
310 310 310 309 309 309 309 309 308 307 307 308 309 310 310 310 311 312 311 309 308 308 308 308 307 307 307 308 309 310 311 312 313 314 314 315 314 313 312 310 308 307 307 307 307 308 308 307 308 308 309 310 310 309 307 304 300 297 294 292 288 285 281 277 274 271 269 267 266 266 266 267 267 267 267 267 267 267 267 267 266 266 264 261 259
310 310 309 309 309 309 309 308 308 308 308 309 310 310 311 311 312 311 310 309 308 308 308 308 308 308 308 309 310 312 313 314 315 316 316 316 315 313 311 309 308 308 308 308 309 309 310 310 311 312 313 314 314 313 311 307 304 301 298 296 293 290 286 282 279 276 274 272 271 270 269 269 268 268 268 268 268 268 268 268 268 267 266 264 261
309 310 310 310 309 309 309 309 309 309 309 310 311 311 311 312 311 310 309 309 309 309 309 308 308 309 310 311 312 313 314 315 316 317 317 316 315 313 311 309 308 308 309 309 310 312 313 313 314 315 316 317 318 317 315 311 308 304 302 300 297 295 291 286 282 279 277 274 272 271 270 270 270 269 269 269 269 269 269 269 269 268 267 265 261
310 310 310 310 310 310 310 310 309 309 309 310 311 311 312 311 311 310 310 310 310 310 309 309 309 310 311 312 313 314 315 316 317 318 317 317 316 313 311 309 310 310 311 312 313 314 315 316 317 318 319 321 321 320 319 316 312 308 305 303 301 299 296 292 288 284 280 277 274 272 271 270 270 270 270 269 269 269 269 269 269 268 267 264 259
310 310 311 311 310 310 310 310 309 309 310 311 311 312 312 311 311 311 310 311 311 310 310 310 311 311 312 313 314 315 316 317 318 319 319 318 316 314 311 310 311 312 313 313 314 316 317 318 319 320 322 323 324 324 323 320 317 313 309 306 304 301 299 296 292 289 286 283 280 277 274 273 272 271 271 270 270 270 270 269 268 266 264 260 256
311 311 311 311 310 310 310 310 309 310 311 312 312 312 312 312 311 311 311 311 311 311 311 311 311 312 312 313 314 316 317 318 319 320 319 319 317 314 311 310 311 313 314 314 315 316 318 319 320 321 323 324 326 326 326 325 322 317 313 309 306 303 300 297 294 292 289 287 284 282 279 277 275 273 272 271 270 269 267 266 264 262 259 257 254
312 311 311 311 310 311 310 310 310 310 311 312 312 312 312 312 312 312 312 312 311 311 311 312 312 312 313 314 315 316 317 319 320 321 320 319 317 314 311 310 311 313 314 315 315 316 318 319 321 322 323 325 326 328 329 328 326 322 318 313 308 305 302 299 295 292 290 288 285 283 281 279 276 274 272 270 268 266 264 263 262 260 258 256 254
312 311 311 311 310 310 310 310 310 311 312 312 312 313 312 312 312 312 312 312 312 312 312 312 313 313 314 314 315 317 318 319 321 321 321 319 317 313 311 310 311 312 314 315 315 316 317 319 320 322 323 324 326 328 330 330 329 326 323 319 315 310 306 302 297 293 290 287 285 283 281 279 277 275 272 270 268 267 265 263 262 261 260 258 256
311 311 311 310 310 310 309 309 309 311 312 312 313 313 313 313 313 313 313 312 312 312 313 313 313 313 314 315 316 317 319 320 322 322 321 319 317 313 310 309 310 311 313 314 315 315 316 317 319 321 322 323 324 326 329 330 330 329 327 325 322 317 311 305 299 294 290 287 285 284 282 279 277 274 272 270 268 267 266 264 263 262 261 259 258
311 311 310 310 310 309 309 309 309 311 312 313 313 313 313 313 313 313 313 313 313 313 313 314 314 314 315 315 316 318 319 321 323 323 322 320 317 314 311 309 309 310 311 313 314 314 315 316 317 319 321 322 322 324 327 328 329 330 329 328 327 323 317 311 305 300 294 288 285 283 282 280 278 275 273 270 268 266 265 264 263 261 260 258 257
311 311 310 310 310 309 308 308 310 311 312 313 313 313 313 314 314 314 313 313 313 314 314 314 314 315 315 316 317 318 320 322 323 323 322 320 318 315 312 310 309 309 310 311 312 313 313 314 316 317 319 320 321 322 325 326 327 328 329 330 330 327 323 318 312 306 301 296 290 285 281 280 278 277 275 273 270 267 265 263 262 260 259 258 257
311 311 310 310 309 308 308 309 311 312 313 313 314 314 314 314 314 314 314 314 314 315 315 315 315 315 316 317 318 319 320 323 324 324 322 320 318 316 313 311 310 309 310 310 311 312 313 313 314 315 317 318 319 320 322 324 325 326 328 330 330 329 326 322 317 311 306 302 298 292 287 282 278 277 276 274 273 270 268 265 263 261 259 258 256
311 311 310 310 309 308 308 309 311 313 313 314 314 315 315 315 314 314 314 315 315 316 315 316 316 316 317 318 318 319 321 323 325 325 323 321 319 317 315 312 310 310 310 310 311 311 312 312 313 314 315 317 317 318 320 321 322 324 326 328 329 329 327 325 320 316 311 306 302 298 294 289 284 279 276 274 272 271 269 267 265 263 261 259 258
311 310 310 309 309 308 308 310 312 313 314 314 315 315 315 315 315 315 315 316 316 316 316 316 316 317 318 318 319 320 322 324 326 325 324 322 321 319 317 314 311 310 310 310 310 311 311 312 313 313 314 315 316 317 318 319 320 322 324 326 327 327 326 325 323 320 316 312 306 301 297 293 289 284 279 276 273 270 268 266 265 264 264 263 262
310 310 309 308 308 307 308 311 312 313 314 315 315 315 315 315 315 315 316 316 316 317 317 317 317 318 318 319 319 320 322 325 327 326 325 324 323 321 318 315 312 311 311 310 311 311 312 312 313 313 314 314 315 315 316 318 318 320 322 324 325 325 325 324 324 323 320 315 310 304 298 294 290 286 283 280 277 274 271 268 266 265 264 264 264
309 309 309 308 307 307 309 311 313 314 315 315 315 316 315 316 316 316 316 317 318 318 318 318 319 319 319 320 320 320 323 326 328 328 327 326 325 323 320 317 314 312 311 311 311 312 312 313 314 314 315 315 315 315 315 316 317 318 320 322 323 324 323 323 324 324 321 317 311 306 300 296 291 288 285 283 281 278 277 274 272 269 267 266 265
308 309 308 307 306 307 310 312 314 314 315 315 315 316 316 316 316 317 318 318 319 319 319 319 320 320 320 320 320 321 324 327 329 329 328 328 327 325 323 320 316 313 312 311 311 312 313 314 315 315 316 316 316 315 314 314 315 316 318 320 322 322 322 323 324 324 321 317 312 307 302 298 295 291 288 285 283 282 281 280 277 275 272 269 267
308 308 307 307 307 308 311 313 314 315 315 315 316 316 316 317 317 318 319 319 320 320 320 320 321 321 321 320 320 321 324 327 330 330 330 330 329 328 325 322 319 315 312 311 311 311 312 314 314 316 317 317 317 317 316 314 314 315 317 318 320 321 321 322 324 322 320 316 312 308 304 301 298 295 292 288 286 285 284 282 279 277 274 270 268
308 308 307 306 307 310 312 313 315 315 315 316 316 316 317 317 318 319 320 321 321 321 321 321 321 321 321 320 320 321 324 327 330 332 332 332 331 330 328 325 321 317 314 312 311 311 312 313 314 315 316 317 318 318 318 316 316 316 317 317 318 319 320 322 323 321 319 315 311 308 305 302 299 297 295 292 288 286 284 282 281 278 275 271 269
308 308 307 306 308 310 312 314 315 315 315 316 316 317 317 318 319 320 321 322 322 322 322 322 322 322 322 321 321 322 324 327 330 332 333 333 333 332 330 328 324 320 315 312 311 311 312 312 313 314 315 316 317 318 318 318 318 318 318 317 317 319 320 321 321 321 318 314 311 308 305 303 300 298 296 293 290 287 284 283 281 279 277 276 275
308 307 306 306 309 311 313 314 315 315 316 316 317 317 318 319 320 321 322 323 323 323 323 323 323 323 322 322 322 322 324 327 330 332 333 334 334 334 332 330 327 323 318 314 311 311 311 312 313 314 315 315 316 317 317 318 319 319 319 318 318 319 320 320 321 320 317 314 311 309 306 304 302 299 297 294 292 290 287 285 283 282 282 282 281
307 307 306 307 310 312 313 315 315 315 316 317 317 318 318 319 321 322 323 324 324 324 324 324 324 324 324 323 323 323 324 327 329 331 333 334 335 335 333 331 329 325 320 316 312 311 311 312 313 313 315 316 316 316 316 317 318 319 320 320 320 320 320 320 320 319 317 315 313 310 308 305 303 301 299 296 294 293 291 290 288 287 286 285 283
307 306 307 308 310 312 314 315 315 315 316 317 318 318 319 320 322 324 325 325 325 325 325 325 325 325 325 324 324 324 325 327 329 331 332 333 335 335 334 332 330 328 323 318 314 312 311 311 312 313 314 316 317 317 317 317 318 318 319 320 321 321 321 321 320 319 317 315 314 312 310 307 305 303 301 300 298 296 294 293 291 289 287 285 283
307 307 307 309 311 313 314 314 315 315 316 317 318 318 319 320 322 324 325 326 326 326 326 326 326 326 326 326 325 325 326 327 329 330 332 333 334 335 334 333 331 329 326 321 316 312 311 311 312 312 313 315 316 317 317 317 317 318 319 320 321 321 322 322 321 319 317 316 315 313 310 309 307 305 304 303 301 299 296 294 292 289 288 286 284
307 307 308 310 311 313 313 314 315 315 316 317 318 319 319 321 323 325 326 326 327 327 326 327 327 327 327 327 327 326 327 328 329 330 332 333 333 334 334 333 331 330 327 323 318 314 310 309 310 311 311 313 314 315 316 317 317 318 319 320 321 321 322 322 321 320 319 318 316 312 310 309 308 307 306 304 303 301 299 296 294 291 290 288 286
307 307 308 310 312 313 313 314 314 315 316 317 318 319 319 321 323 325 326 327 327 328 327 328 328 328 329 329 328 328 328 328 329 331 332 332 333 333 333 333 331 329 327 324 320 316 311 309 308 309 310 311 313 314 315 316 317 318 319 320 321 321 322 322 321 321 322 321 318 314 312 310 308 307 306 305 303 302 300 298 296 294 292 289 287
307 308 309 311 312 312 313 313 314 315 316 317 318 319 320 321 323 325 326 328 328 328 328 329 329 330 330 330 329 329 329 329 330 331 332 332 332 331 331 331 330 328 326 323 320 317 312 309 307 306 306 307 309 310 312 313 313 315 317 319 320 321 321 320 320 321 322 321 318 316 314 312 309 308 307 305 304 302 302 300 298 296 293 291 289
307 308 310 311 312 312 312 313 314 315 316 317 318 319 320 321 323 325 327 328 329 329 329 330 330 331 331 331 330 330 330 330 330 331 332 332 332 331 329 328 328 327 325 323 320 317 313 310 307 305 303 303 304 305 307 308 310 312 314 317 319 321 320 319 320 321 322 321 319 318 316 313 309 308 306 305 304 304 304 303 301 299 297 294 290